Torna al catalogo

ARIANE 40 R/B

AttivoSSO
NORAD 22830·ROCKET BODY·🇫🇷 France

Lanciato Sep 26, 1993 da Guiana Space Centre

Loading…

Prossimi Passaggi (prossime 24 ore)

TLE

AggiornatoSource: Space-Track

Epoca: Sep 14, 2026, 22:24 UTC

1 22830U 93061H   26257.93373753  .00000111  00000-0  56163-4 0  9994
2 22830  98.4735 322.8897 0011883  85.2010 275.0531 14.32937147721205

Traccia ARIANE 40 R/B in tempo reale con AllMySat

Download on the App Store